[[{"header":{"parameterUnit":"m.s-1","parameterCategory":1,"la1":30.2991,"la2":30.254,"lo1":-89.0895,"lo2":-89.0444,"dy":0.0017,"dx":0.0017,"nx":28,"ny":28,"refTime":"2025-07-20T21:00:00:Z","depth":0,"parameterNumber":2,"parameterNumberName":"U-component_of_WINDS"},"data":[0,0,0,0,0,0,0,0,0,0,0,0,0,0,0,0,0,0,0,0,0,0,0,0,0,0,0,0,0,0,0,0,0,0,0,0,0,0,0,0,0,0,0,0,0,0,0,0,0,0,0,0,0,0,0,0,0,0,4.3633,4.3635,0,4.3815,4.3817,4.3819,4.3794,4.3791,4.3788,4.3785,4.3972,4.398,4.3988,0,0,0,0,0,0,0,0,0,0,0,0,0,4.3266,4.3273,4.3633,4.3636,4.3638,4.3814,4.3817,4.3819,4.3794,4.3791,4.3787,4.3784,4.397,4.3979,4.3988,0,0,0,0,0,0,0,0,0,0,0,0,0,4.3434,4.3275,4.3633,4.3646,4.365,4.3814,4.3817,4.382,4.3795,4.3791,4.3786,4.3782,4.3967,4.3978,4.399,4.4152,0,0,4.4025,4.403,0,0,0,0,0,0,0,0,4.3425,4.3448,4.3642,4.3646,4.365,4.3777,4.3756,4.3932,4.3796,4.374,4.3785,4.378,4.3911,4.3927,4.3971,4.4161,4.4169,4.4026,4.4033,4.4038,4.4042,0,0,0,0,0,0,0,4.3413,4.344,4.3705,4.3645,4.365,4.3644,4.3663,4.3789,4.3849,4.3744,4.3743,4.3765,4.3912,4.396,4.3975,4.4172,4.4026,4.4036,4.4044,4.4048,4.4506,4.451,0,0,0,0,0,0,4.3398,4.343,4.3699,4.3711,4.3524,4.3654,4.3675,4.3741,4.3847,4.3859,4.3768,4.3763,4.3942,4.3962,4.3982,4.418,4.4038,4.4049,4.4056,4.4501,4.4507,4.4512,0,0,0,0,0,0,4.339,4.3422,4.3692,4.357,4.3604,4.3665,4.3739,4.3747,4.3794,4.3865,4.3876,4.3806,4.3939,4.3965,4.411,4.4186,4.4055,4.4065,4.4494,4.4502,4.451,4.4578,0,0,0,0,0,0,4.338,4.3419,4.3482,4.3572,4.3611,4.3817,4.3744,4.3753,4.3814,4.3809,4.3904,4.3915,4.3938,4.4093,4.4122,4.42,4.4074,4.4488,4.4498,4.4507,4.4569,4.4587,4.4602,0,0,0,0,0,4.3367,4.3494,4.3485,4.3518,4.369,4.3822,4.3844,4.3867,4.3821,4.3884,4.393,4.3912,4.4173,4.4108,4.414,4.4223,4.4483,4.4495,4.4506,4.4561,4.4583,4.4601,0,0,0,0,0,0,4.3411,4.3506,4.3497,4.3657,4.3732,4.3817,4.3898,4.3889,4.3979,4.397,4.3995,4.4017,4.4164,4.4208,4.4134,4.4387,4.4322,4.434,4.4353,4.4374,4.439,4.4377,4.4084,0,0,0,0,0,4.344,4.3539,4.3616,4.375,4.3787,4.3836,4.3895,4.3906,4.3984,4.4016,4.4072,4.4149,4.4248,4.4313,4.4409,4.4575,4.4595,4.4648,4.4664,4.4677,4.4693,4.4785,4.4809,4.455,4.455,4.455,0,0,4.35,4.3564,4.3625,4.376,4.3819,4.3922,4.3863,4.3974,4.405,4.4033,4.4173,4.4217,4.4305,4.4461,4.4533,4.4502,4.4769,4.4692,4.4702,4.4711,4.4799,4.4824,4.4846,4.4558,4.4557,4.4555,0,0,4.3661,4.3719,4.3838,4.3898,4.3988,4.4019,4.4047,4.4135,4.4163,4.4304,4.4294,4.4385,4.4555,4.4618,4.4673,4.4858,4.4846,4.4889,4.4975,4.5064,4.5085,4.5103,4.517,4.5193,4.4904,4.4904,4.4905,0,4.3725,4.3878,4.3899,4.4012,4.4072,4.406,4.4181,4.4238,4.4355,4.4397,4.4361,4.4575,4.4633,4.4804,4.4849,4.4894,4.4927,4.4878,4.508,4.5099,4.5116,4.518,4.5205,4.4909,4.4909,4.4908,4.4908,0,4.3952,4.4058,4.4143,4.4256,4.4325,4.4441,4.448,4.4548,4.4554,4.4589,4.4733,4.4802,4.4912,4.4953,4.496,4.5126,4.5104,4.5074,4.5009,4.5145,4.5205,4.523,4.4916,4.4914,4.4913,4.4912,0,0,4.4148,4.427,4.4301,4.4352,4.445,4.4533,4.4648,4.4755,4.4813,4.4894,4.4992,4.5136,4.5109,4.5171,4.5184,4.5262,4.5405,4.5222,4.5225,4.5254,4.5593,4.5616,4.5644,4.5397,4.5402,4.5406,4.5586,0,4.432,4.4523,4.4545,4.4727,4.4826,4.4816,4.4916,4.4988,4.5024,4.5113,4.5153,4.5256,4.5212,4.5249,4.5326,4.5371,4.5474,4.5359,4.5489,4.5493,4.5468,4.5675,4.57,4.5866,4.561,4.5614,4.5617,0,4.4547,4.4634,4.4825,4.491,4.4952,4.5042,4.5142,4.5227,4.5308,4.5329,4.5398,4.5401,4.552,4.545,4.5616,4.5537,4.5591,4.5622,4.5629,4.5643,4.5564,4.5695,4.592,4.5945,4.5654,4.5651,4.5648,0,4.4672,4.4837,4.4972,4.5016,4.5118,4.5182,4.5227,4.5303,4.5366,4.5453,4.5494,4.5594,4.5649,4.5726,4.5757,4.5703,4.5921,4.5853,4.5942,4.5941,4.5989,4.5986,4.6226,4.6023,4.6023,4.6022,4.6022,0,4.4862,4.4979,4.503,4.5113,4.5245,4.5269,4.5399,4.5442,4.551,4.5602,4.5599,4.5686,4.572,4.5813,4.5837,4.597,4.5995,4.6016,4.6021,4.6017,4.6014,4.6053,4.6043,4.6029,4.6027,4.6026,4.6025,0,4.5024,4.5062,4.5209,4.5294,4.5317,4.5411,4.5483,4.5564,4.5599,4.5715,4.5744,4.5799,4.5908,4.5945,4.6077,4.6093,4.6248,4.6244,4.6221,4.6222,4.6309,4.6301,4.6584,4.6623,4.6393,4.6395,4.6397,0,4.5143,4.5233,4.5327,4.5388,4.5436,4.5534,4.5598,4.5626,4.5692,4.5791,4.586,4.5968,4.6055,4.6229,4.6281,4.6382,4.638,4.6472,4.6395,4.6388,4.6382,4.6377,4.6386,4.6487,4.6489,4.6491,4.6493,0,4.535,4.5365,4.5456,4.5555,4.5631,4.571,4.5787,4.5837,4.5876,4.5951,4.6062,4.613,4.6264,4.6371,4.6474,4.6521,4.6515,4.6517,4.6543,4.6539,4.6523,4.6533,4.6261,4.651,4.6508,4.6507,4.6506,4.6506,4.5495,4.5575,4.5653,4.5756,4.5816,4.5887,4.5968,4.6012,4.6105,4.6216,4.6226,4.6346,4.6424,4.6562,4.6614,4.6708,4.6682,4.672,4.673,4.6739,4.6745,4.6507,4.6727,4.6726,4.6726,4.6726,4.6725,0,4.5703,4.5753,4.5847,4.5954,4.6034,4.6019,4.6103,4.6172,4.6277,4.635,4.6436,4.6564,4.6667,4.6727,4.6831,4.6895,4.6894,4.6921,4.6917,4.6928,4.6762,4.6729,4.692,4.692,4.692,4.692,4.692,4.692,4.5821,4.5955,4.5979,4.6143,4.6192,4.6309,4.6358,4.6424,4.6483,4.6625,4.671,4.6748,4.6817,4.6926,4.702,4.7035,4.7074,4.7104,4.7116,4.696,4.694,4.6921,4.689,4.7112,4.7112,4.7275,4.7276,4.7277]},{"header":{"parameterUnit":"m.s-1","parameterCategory":1,"la1":30.2991,"la2":30.254,"lo1":-89.0895,"lo2":-89.0444,"dy":0.0017,"dx":0.0017,"nx":28,"ny":28,"refTime":"2025-07-20T21:00:00:Z","depth":0,"parameterNumber":3,"parameterNumberName":"V-component_of_WINDS"},"data":[0,0,0,0,0,0,0,0,0,0,0,0,0,0,0,0,0,0,0,0,0,0,0,0,0,0,0,0,0,0,0,0,0,0,0,0,0,0,0,0,0,0,0,0,0,0,0,0,0,0,0,0,0,0,0,0,0,0,-0.0133,-0.0133,0,-0.0143,-0.0143,-0.0143,-0.0164,-0.0164,-0.0164,-0.0165,-0.0175,-0.0175,-0.0175,0,0,0,0,0,0,0,0,0,0,0,0,0,-0.013,-0.013,-0.0133,-0.0133,-0.0133,-0.0143,-0.0143,-0.0143,-0.0163,-0.0164,-0.0164,-0.0165,-0.0175,-0.0175,-0.0175,0,0,0,0,0,0,0,0,0,0,0,0,0,-0.0135,-0.013,-0.0133,-0.0144,-0.0145,-0.0143,-0.0143,-0.0144,-0.0163,-0.0164,-0.0165,-0.0165,-0.0175,-0.0175,-0.0175,-0.0162,0,0,-0.0174,-0.0174,0,0,0,0,0,0,0,0,-0.0135,-0.0135,-0.0142,-0.0143,-0.0145,-0.0153,-0.0146,-0.015,-0.0163,-0.0157,-0.0165,-0.0165,-0.0167,-0.0168,-0.0168,-0.0162,-0.0163,-0.0174,-0.0174,-0.0174,-0.0174,0,0,0,0,0,0,0,-0.0134,-0.0135,-0.0137,-0.0142,-0.0144,-0.0149,-0.015,-0.0147,-0.0158,-0.0157,-0.0159,-0.016,-0.0168,-0.0168,-0.0169,-0.0163,-0.0174,-0.0174,-0.0174,-0.0174,-0.0148,-0.0148,0,0,0,0,0,0,-0.0132,-0.0134,-0.0137,-0.0137,-0.0141,-0.0148,-0.015,-0.015,-0.0158,-0.016,-0.0159,-0.0161,-0.0168,-0.0169,-0.0169,-0.0155,-0.0174,-0.0174,-0.0174,-0.0149,-0.0148,-0.0147,0,0,0,0,0,0,-0.0132,-0.0132,-0.0136,-0.0136,-0.0137,-0.0148,-0.0147,-0.0149,-0.015,-0.016,-0.0162,-0.0158,-0.0169,-0.0169,-0.0164,-0.0156,-0.0174,-0.0174,-0.0149,-0.0148,-0.0148,-0.0126,0,0,0,0,0,0,-0.0132,-0.0132,-0.0127,-0.0136,-0.0137,-0.013,-0.0147,-0.0149,-0.015,-0.0152,-0.0159,-0.0161,-0.0169,-0.0164,-0.0164,-0.0156,-0.0174,-0.015,-0.0149,-0.0148,-0.0128,-0.0125,-0.0122,0,0,0,0,0,-0.0132,-0.0121,-0.0127,-0.0127,-0.0131,-0.013,-0.0131,-0.0141,-0.0149,-0.0144,-0.0151,-0.0161,-0.0157,-0.0163,-0.0163,-0.0155,-0.0151,-0.0149,-0.0148,-0.0129,-0.0125,-0.0122,0,0,0,0,0,0,-0.011,-0.0122,-0.0129,-0.012,-0.0124,-0.0133,-0.0128,-0.0136,-0.0138,-0.0139,-0.0152,-0.0153,-0.0146,-0.015,-0.0157,-0.0143,-0.0155,-0.0154,-0.0141,-0.0138,-0.0135,-0.0134,-0.0174,0,0,0,0,0,-0.0105,-0.0103,-0.0113,-0.0104,-0.0106,-0.0116,-0.0116,-0.0124,-0.0128,-0.013,-0.0136,-0.014,-0.0139,-0.0139,-0.0139,-0.0129,-0.0131,-0.0123,-0.0121,-0.0118,-0.0117,-0.0112,-0.0109,-0.0143,-0.0143,-0.0143,0,0,-0.0093,-0.0099,-0.0097,-0.01,-0.0104,-0.0102,-0.0118,-0.0114,-0.0113,-0.0129,-0.0124,-0.0129,-0.0134,-0.0126,-0.0123,-0.0129,-0.0108,-0.0117,-0.0115,-0.0114,-0.011,-0.0107,-0.0104,-0.0142,-0.0142,-0.0142,0,0,-0.007,-0.0074,-0.0068,-0.0071,-0.0077,-0.0084,-0.0083,-0.0091,-0.0095,-0.009,-0.0103,-0.0101,-0.01,-0.0104,-0.0105,-0.0085,-0.0094,-0.0084,-0.007,-0.0065,-0.0062,-0.006,-0.0053,-0.005,-0.0083,-0.0083,-0.0083,0,-0.0054,-0.0051,-0.0063,-0.0059,-0.0061,-0.0076,-0.0069,-0.0072,-0.0078,-0.0078,-0.0085,-0.0085,-0.009,-0.0083,-0.0078,-0.0079,-0.0077,-0.0083,-0.0062,-0.006,-0.0058,-0.0051,-0.0048,-0.0082,-0.0082,-0.0082,-0.0082,0,-0.0032,-0.003,-0.0024,-0.0029,-0.003,-0.0025,-0.0036,-0.0035,-0.0043,-0.0049,-0.0045,-0.0051,-0.0053,-0.0052,-0.006,-0.0047,-0.0051,-0.0059,-0.0072,-0.0053,-0.0047,-0.0044,-0.008,-0.008,-0.0081,-0.0081,0,0,0.0005,-0.0007,-0.0005,-0.0007,-0.0015,-0.0014,-0.001,-0.0012,-0.0011,-0.0015,-0.0012,-0.0011,-0.002,-0.0022,-0.003,-0.0026,-0.0009,-0.0035,-0.0036,-0.003,0.0004,0.0011,0.0015,-0.0016,-0.0015,-0.0015,0.0005,0,0.0027,0.0033,0.0022,0.0031,0.0033,0.0018,0.0021,0.0017,0.0011,0.0011,0.0004,0.0004,-0.0007,-0.0008,-0.0005,-0.0012,-0.0002,-0.0014,-0.0013,-0.0013,-0.0011,0.0018,0.0026,0.0044,0.0007,0.0008,0.0008,0,0.0053,0.0051,0.006,0.005,0.0051,0.0054,0.0051,0.0051,0.0046,0.0041,0.0038,0.0028,0.0031,0.0019,0.0023,0.0016,0.0015,0.0012,0.0012,0.0012,-0.0001,0.0019,0.005,0.0053,0.0012,0.0011,0.0011,0,0.008,0.0078,0.0083,0.0081,0.0071,0.0074,0.0069,0.0063,0.0062,0.0059,0.0058,0.0056,0.0055,0.0053,0.0042,0.0034,0.0047,0.0034,0.0043,0.0044,0.0047,0.0047,0.0079,0.0046,0.0046,0.0046,0.0046,0,0.0105,0.0111,0.0095,0.0098,0.0105,0.0092,0.0098,0.0092,0.0087,0.0088,0.0075,0.0077,0.0063,0.0063,0.0055,0.0059,0.0058,0.0055,0.0052,0.0056,0.0057,0.0056,0.0054,0.0047,0.0047,0.0047,0.0047,0,0.0136,0.0125,0.013,0.0119,0.0117,0.0122,0.0113,0.0115,0.0107,0.011,0.011,0.0098,0.0097,0.0086,0.0083,0.0078,0.0086,0.0081,0.0088,0.0086,0.0096,0.0095,0.0129,0.0133,0.0097,0.0097,0.0098,0,0.0153,0.0158,0.0147,0.0147,0.0144,0.0144,0.0143,0.013,0.0129,0.0122,0.0126,0.0124,0.0122,0.0121,0.0113,0.011,0.0105,0.0117,0.0105,0.0108,0.0106,0.0106,0.0106,0.012,0.012,0.0121,0.0121,0,0.0185,0.0179,0.0178,0.0175,0.0174,0.0171,0.0167,0.0168,0.0153,0.0153,0.0152,0.0151,0.0147,0.0146,0.0141,0.0137,0.0127,0.0125,0.0127,0.0131,0.0135,0.0133,0.0095,0.0124,0.0124,0.0124,0.0124,0.0124,0.021,0.0213,0.0206,0.0205,0.02,0.0197,0.0198,0.019,0.0189,0.0186,0.0178,0.0178,0.0171,0.0165,0.0161,0.0161,0.0154,0.0157,0.0158,0.0159,0.0161,0.0134,0.016,0.016,0.016,0.0159,0.0159,0,0.0241,0.0235,0.0234,0.0229,0.0228,0.0218,0.0213,0.0213,0.0213,0.0208,0.0206,0.0204,0.0202,0.0193,0.019,0.0191,0.0187,0.0191,0.0191,0.019,0.0167,0.0165,0.0195,0.0195,0.0195,0.0195,0.0195,0.0195,0.0257,0.0261,0.0255,0.0257,0.0251,0.0251,0.0249,0.0245,0.0241,0.024,0.0238,0.0232,0.0225,0.0221,0.0218,0.0215,0.0215,0.0221,0.0217,0.0195,0.0192,0.0189,0.0187,0.0221,0.0221,0.024,0.024,0.0241]}]]